{"data":{"norad_id":59261,"intl_designator":"2024-050H","name":"STARLINK-31639","alt_names":[],"object_type":"PAYLOAD","status":"ACTIVE","operator":null,"country":"US","launch_date":"2024-03-19","launch_site_code":"AFWTR","launch_vehicle":null,"mission":null,"orbit_class":"UNKNOWN","rcs_meters":null,"size_class":null,"mass_kg":null,"dimensions":null,"purposes":["comms"],"wikipedia_slug":null,"has_3d_model":false,"image_url":null,"decayed_at":null,"tle_current":{"epoch":"2026-09-21T02:14:41.673696Z","epoch_age_seconds":110969,"freshness":"FRESH","line1":"1 59261U 24050H   26264.09353789 -.00001783  00000+0 -45701-4 0  9999","line2":"2 59261  53.1613 352.0989 0001074  87.2345 272.8780 15.31694767140481","mean_motion":15.31694767,"eccentricity":0.0001074,"inclination_deg":53.1613,"raan_deg":352.0989,"arg_perigee_deg":87.2345,"mean_anomaly_deg":272.878,"bstar":-4.5701e-5,"rev_number":14048,"period_min":94.013509154987,"perigee_km":470.0200235061,"apogee_km":471.49116563542,"semimajor_km":6848.8925945708,"source":"CELESTRAK","updated_at":"2026-09-22T09:00:48.872017Z"}}}